www.pogodaiklimat.ru
Время
(UTC), дата
18 29.05
21 29.05
00 30.05
03 30.05
06 30.05
09 30.05
12 30.05
15 30.05
18 30.05
21 30.05
00 31.05
03 31.05
06 31.05
09 31.05
12 31.05
15 31.05
18 31.05
21 31.05
00 1.06
03 1.06
06 1.06
09 1.06
12 1.06
15 1.06
18 1.06
21 1.06
00 2.06
03 2.06
06 2.06
09 2.06
12 2.06
15 2.06
18 2.06
21 2.06
00 3.06
03 3.06
06 3.06
09 3.06
12 3.06
15 3.06
18 3.06
21 3.06
00 4.06
03 4.06
06 4.06
09 4.06
12 4.06
15 4.06
18 4.06
21 4.06
00 5.06
03 5.06
06 5.06
09 5.06
12 5.06
15 5.06
Ветер
(напр.,м/с)
Видим. Явления Облачность Т
(С)
Тd
(С)
f
(%)
Тe
(С)
Тes
(С)
Комфортность P
(гПа)
Po
(гПа)
Тmin
(С)
Tmax
(С)
R
(мм)
R24
(мм)
S
(см)
С 1-2
{3}
1000 м слаб. морось 10/10 90 м
[St]
+6.9 +5.9 93 +6 +6 тепло 1008.2 1005.5
ЮЗ 2-3
{4}
4000 м в посл. час туман 10/3 300 м
[St Ac trans Ci fib]
+7.6 +6.6 93 +5 +6 по сезону 1009.1 1006.4 +5.9 0.1
Ю 3-5
{5}
20 км {морось, туман} 3/0
[Ci fib]
+18.6 +9.7 56 +19 +30 тепло 1008.8 1006.2
З 1-3
{5}
20 км 5/0
[Ac trans Ci fib]
+28.0 +7.8 28 +28 +44 жарко 1007.6 1005.1
СЗ 4-8
{8}
20 км 8/0
[Ci fib]
+28.8 +5.2 22 +27 +33 жарко 1007.8 1005.3
ЮЗ 3-6
{8}
20 км 8/0
[Ci sp]
+24.9 +5.3 28 +24 +25 комфорт 1009.0 1006.5 +29.4
С 3-5
{6}
4000 м 8/0
[Ci fib]
+15.6 +7.1 57 +15 +15 тепло 1011.1 1008.5
штиль 0
{5}
4000 м ясно +7.0 +5.3 89 +6 +6 по сезону 1011.3 1008.6
С 2-3
{3}
4000 м ясно +5.7 +4.1 89 +3 +3 по сезону 1011.3 1008.6
штиль 0
{3}
20 км ясно +11.3 +7.3 76 +11 +15 тепло 1011.8 1009.1 +5.0
Ю 3-5
{7}
20 км ясно +20.8 +9.3 48 +23 +34 комфорт 1010.6 1008.0
Ю 5-7
{9}
20 км ясно +24.8 +9.7 38 +26 +35 жарко 1009.3 1006.7
Ю 4-7
{10}
20 км ясно +24.8 +8.2 35 +25 +32 комфорт 1008.5 1006.0
Ю 4-8
{10}
20 км 4/0
[Cs]
+20.8 +4.0 33 +22 +22 комфорт 1009.3 1006.8 +26.6
Ю 3-5
{8}
4000 м 3/0
[Cs]
+15.9 +2.6 41 +16 +16 тепло 1010.7 1008.0
ЮВ 2-4
{5}
4000 м ясно +14.2 +2.1 44 +14 +14 тепло 1010.4 1007.8
ЮВ 1-2
{4}
4000 м 3/1 1000 м
[Sc Cs]
+11.1 +2.5 55 +11 +11 тепло 1009.8 1007.1
Ю 2-4
{4}
20 км 3/0
[Cs]
+13.1 +6.9 66 +13 +15 тепло 1010.3 1007.7 +6.4
Ю 4-7
{7}
20 км ясно +19.8 +5.3 39 +20 +30 тепло 1009.0 1006.4
Ю 5-9
{10}
20 км 1/1 1000 м
[Cu hum]
+21.4 +6.7 39 +22 +31 комфорт 1007.3 1004.7
Ю 5-10
{10}
20 км 1/1 1000 м
[Cu med, cong]
+22.4 +8.8 42 +24 +28 комфорт 1006.3 1003.8
Ю 4-6
{10}
20 км ясно +17.5 +7.1 50 +17 +18 тепло 1006.9 1004.3 +22.9
ЮВ 1-2
{6}
4000 м ясно +11.0 +5.8 70 +11 +11 тепло 1007.7 1005.0
СЗ 1-1
{2}
4000 м 1/1 1000 м
[Sc]
+8.9 +6.6 85 +8 +8 по сезону 1006.5 1003.8
штиль 0
{2}
4000 м 1/0
[Ac trans]
+7.7 +5.2 84 +7 +7 по сезону 1004.0 1001.4
С 1-2
{2}
20 км 9/3 1000 м
[Sc Ac lent]
+10.5 +6.8 78 +10 +11 тепло 1003.0 1000.4 +7.2
С 2-5
{5}
20 км слаб. ливневой дождь 10/8 600 м
[Cb cap Ac und]
+15.1 +7.0 58 +15 +16 тепло 1002.2 999.6
СЗ 2-4
{6}
4000 м ливневой дождь 10/8 600 м
[Cb cap Ac und]
+13.6 +9.2 75 +13 +14 по сезону 1001.8 999.2
СЗ 2-3
{6}
4000 м в посл. час ливневой дождь 10/10 420 м
[St]
+12.2 +9.6 84 +11 +11 прохладно 1001.4 998.7
СЗ 1-1
{4}
1000 м слаб. морось 10/10 180 м
[St]
+11.1 +9.6 90 +11 +11 по сезону 1001.6 999.0 +15.7 1
ЮЗ 1-2
{4}
4000 м дымка 10/10 180 м
[St]
+11.6 +10.2 91 +11 +11 тепло 1002.8 1000.2
Ю 1-2
{4}
4000 м слаб. морось 10/10 150 м
[St]
+11.4 +10.3 93 +11 +11 тепло 1001.9 999.3
Ю 2-4
{6}
4000 м дымка 10/10 210 м
[St]
+11.3 +10.0 92 +10 +10 тепло 1002.0 999.4
Ю 1-2
{4}
4000 м дымка 9/8 300 м
[St Ac lent]
+12.2 +10.3 88 +12 +13 тепло 1002.1 999.5 +11.1 0.1
ЮЗ 3-5
{5}
10 км 10/10 600 м
[Cb calv]
+14.1 +11.2 83 +13 +13 тепло 1002.5 999.9
Ю 4-6
{7}
20 км 8/3 600 м
[Cb calv Ac trans]
+16.5 +11.0 70 +16 +21 тепло 1002.4 999.8
Ю 5-8
{8}
20 км 8/4 600 м
[Cb calv Ac trans]
+18.1 +10.9 63 +18 +20 тепло 1001.8 999.2
Ю 3-5
{9}
20 км 6/3 600 м
[Cb calv Ac trans Ci fib]
+15.5 +9.8 69 +15 +15 тепло 1002.7 1000.1 +19.0
штиль 0
{5}
4000 м ясно +10.2 +8.3 88 +9 +9 по сезону 1004.4 1001.7
З 1-2
{2}
4000 м 1/0
[Ac trans]
+7.4 +6.1 91 +6 +6 по сезону 1005.5 1002.9
штиль 0
{2}
1000 м дымка 10/10 90 м
[St]
+6.2 +5.0 92 +5 +5 по сезону 1005.7 1003.0
штиль 0
{2}
4000 м дымка {туман} 9/8 90 м
[St Ac trans]
+10.2 +9.1 93 +9 +10 по сезону 1006.2 1003.5 +5.6
ЮЗ 2-4
{4}
20 км {туман} 9/6 600 м
[Cb cap Ac trans]
+16.2 +11.3 73 +16 +19 тепло 1006.4 1003.8
Ю 3-5
{7}
20 км 10/6 600 м
[Cb cap Ac cuf]
+17.8 +9.4 58 +18 +20 тепло 1006.4 1003.9
Ю 3-4
{6}
20 км 10/0
[Ac As Cs]
+19.4 +6.9 44 +20 +23 тепло 1005.8 1003.2
С 3-5
{7}
20 км слаб. дождь 10/0
[As op]
+16.2 +9.5 64 +16 +16 тепло 1005.5 1002.9 +20.2 0.0
С 4-7
{8}
4000 м {дождь} 8/0
[Ac As]
+10.4 +7.9 84 +8 +8 по сезону 1005.8 1003.1
С 2-6
{8}
4000 м в посл. час дождь 10/0
[As op]
+11.4 +7.9 79 +10 +10 тепло 1004.6 1002.0
С 4-8
{8}
4000 м дождь 10/0
[As op]
+9.6 +8.1 90 +7 +7 по сезону 1002.4 999.8
С 2-3
{11}
4000 м слаб. ливневой дождь 10/10 300 м
[Cb cap]
+10.7 +8.7 87 +9 +9 по сезону 1002.8 1000.2 +9.5 5
С 4-7
{8}
20 км {ливн. осадки, дождь} 9/6 600 м
[Cb calv Ac lent]
+12.3 +9.5 83 +10 +12 по сезону 1003.0 1000.3
С 4-7
{8}
10 км слаб. ливневой дождь 10/10 600 м
[Cb cap]
+11.4 +8.9 85 +9 +9 прохладно 1003.7 1001.0
С 5-9
{10}
10 км слаб. ливневой дождь 10/6 600 м
[Cb cap Ac und]
+10.5 +8.0 84 +8 +8 холодно 1004.1 1001.4
С 6-10
{12}
10 км {ливн. осадки} 10/10 300 м
[St]
+8.5 +6.6 88 +4 +4 холодно 1005.0 1002.3 +12.8 1
С 5-9
{10}
4000 м слаб. ливневой дождь 10/10 300 м
[Cb cap]
+6.8 +5.4 91 +3 +3 прохладно 1006.3 1003.6
С 5-9
{11}
4000 м ливневой дождь 10/10 300 м
[Cb cap]
+6.2 +4.9 91 +2 +2 прохладно 1006.4 1003.7
Местоположение метеостанции Южно-Сахалинск (Сахалинская область, Россия): широта 46.95 долгота 142.70 высота над уровнем моря 24 м.
В архиве по умолчанию представлена погода в Южно-Сахалинске за последнюю неделю. Архивные данные за месяц целиком и за предыдущие месяцы, начиная с января 2011 года, Вы можете получить, выбрав интересующий диапазон дат из раскрывающегося списка и нажав кнопку "Найти!".
*Определитесь, кто Вы:
Внимание! Время в таблицах - всемирное. Для получения местного времени необходимо прибавить поправку, которая равна 11 ч.
Смотрите также архив погоды в соседних городах и на ближайших метеорологических станциях:
Партнеры нашего сайта:      
Пояснения к столбцам:
  • Ветер - указаны скорость ветра в м/с - средняя за 10 мин, порывы в срок и между сроками (в фигурных скобках) и направление, откуда дует ветер: С - северный,
  • СВ - северо-восточный, В - восточный, ЮВ - юго-восточный, Ю - южный, ЮЗ - юго-западный, З - западный, СЗ - северо-западный.
  • Видимость - горизонтальная дальность видимости в метрах или километрах. При видимости от 1 до 10 км при отсутствии осадков обычно наблюдается дымка, при ухудшении видимости до 1 км и менее - туман. В сухую погоду видимость может ухудшаться дымом, пылью или мглою.
  • Явления - указаны атмосферные явления, наблюдавшиеся в срок или в последний час перед сроком; фигурными скобками обозначены явления, наблюдавшиеся между сроками (за 1-3 часа до срока); квадратными скобками обозначены град или гололедные отложения с указанием их диаметра в мм.
  • Облачность - указаны через наклонную черту общая и нижняя облачность в баллах и высота нижней границы облаков в метрах; квадратными скобками обозначены формы облаков: Ci - перистые, Cs - перисто-слоистые, Cc - перисто-кучевые, Ac - высококучевые, As - высокослоистые, Sc - слоисто-кучевые, Ns - слоисто-дождевые, Cu - кучевые, Cb - кучево-дождевые. Подробнее классификацию облаков см. в Атласе облаков (PDF).
  • T - Температура воздуха - температура, измеренная на высоте 2 м над землей.
  • Td - Температура точки росы - температура, при понижении до которой содержащийся в воздухе водяной пар достигнет насыщения.
  • f - Относительная влажность воздуха - влажноcть воздуха, измеренная на высоте 2 м над землей.
  • Te - Эффективная температура - температура, которую ощущает одетый по сезону человек в тени. Характеристика душности погоды. При расчете учитывается влияние влажности воздуха и скорости ветра на теплоощущения человека.
  • Tes - Эффективная температура на солнце - температура, которую ощущает человек, с поправкой на солнечный нагрев. Характеристика знойности погоды. Зависит от высоты солнца над горизонтом, облачности и скорости ветра. Ночью, в пасмурную погоду, а также при ветре 12 м/с и более поправка равна нулю.
  • P - Атмосферное давление - приведенное к уровню моря атмосферное давление.
  • Po - Атмосферное давление - измеренное на уровне метеостанции атмосферное давление.
  • Tmin - Минимальная температура - минимум температуры воздуха на высоте 2 м над землей.
  • Tmax - Максимальная температура - максимум температуры воздуха на высоте 2 м над землей.
  • R - Количество осадков - Количество выпавших осадков за период времени, мм. При наведении курсора мыши на число - период времени, за который выпало указанное количество осадков.
  • R24 - Количество осадков - Количество выпавших осадков за 24 часа, мм.
  • S - Снежный покров - Высота снежного покрова, см. При наведении курсора мыши на число - состояние снежного покрова и степень покрытия местности в баллах.